H1 CPF 2 NER 2024 7 31 9 213 01 glonass134 H2 1407501 9134 40315 2024 7 31 0 0 0 2024 8 3 23 45 0 900 1 1 0 0 0 1 H9 10 0 60522 0.00000 0 3569475.634 25057744.344 2806389.226 10 0 60522 900.00000 0 3670309.650 25193736.736 -378875.854 10 0 60522 1800.00000 0 3707173.829 24936350.804 -3556735.456 10 0 60522 2700.00000 0 3628800.425 24301156.468 -6665102.506 10 0 60522 3600.00000 0 3388541.835 23315987.467 -9643229.755 10 0 60522 4500.00000 0 2946617.652 22019761.205 -12432920.107 10 0 60522 5400.00000 0 2272069.861 20460846.479 -14979685.328 10 0 60522 6300.00000 0 1344340.626 18695049.328 -17233828.306 10 0 60522 7200.00000 0 154403.824 16783303.787 -19151425.916 10 0 60522 8100.00000 0 -1294598.936 14789166.875 -20695192.132 10 0 60522 9000.00000 0 -2987245.353 12776225.195 -21835204.044 10 0 60522 9900.00000 0 -4896247.259 10805523.698 -22549476.776 10 0 60522 10800.00000 0 -6983375.197 8933125.485 -22824376.913 10 0 60522 11700.00000 0 -9200852.988 7207905.053 -22654867.717 10 0 60522 12600.00000 0 -11493162.629 5669666.647 -22044583.072 10 0 60522 13500.00000 0 -13799182.916 4347664.805 -21005730.645 10 0 60522 14400.00000 0 -16054571.530 3259586.549 -19558828.149 10 0 60522 15300.00000 0 -18194290.654 2411034.763 -17732279.753 10 0 60522 16200.00000 0 -20155170.844 1795530.998 -15561802.576 10 0 60522 17100.00000 0 -21878406.849 1395034.105 -13089715.820 10 0 60522 18000.00000 0 -23311882.502 1180949.716 -10364107.419 10 0 60522 18900.00000 0 -24412229.426 1115585.355 -7437895.069 10 0 60522 19800.00000 0 -25146535.710 1153987.911 -4367800.081 10 0 60522 20700.00000 0 -25493635.455 1246084.745 -1213253.899 10 0 60522 21600.00000 0 -25444927.564 1339037.713 1964742.064 10 0 60522 22500.00000 0 -25004691.557 1379711.022 5104782.061 10 0 60522 23400.00000 0 -24189888.758 1317149.685 8146225.666 10 0 60522 24300.00000 0 -23029458.136 1104965.223 11030350.283 10 0 60522 25200.00000 0 -21563136.527 703529.351 13701465.842 10 0 60522 26100.00000 0 -19839852.043 81884.461 16107971.814 10 0 60522 27000.00000 0 -17915756.650 -780708.737 18203337.847 10 0 60522 27900.00000 0 -15851978.279 -1893651.274 19946990.666 10 0 60522 28800.00000 0 -13712184.097 -3254361.279 21305091.412 10 0 60522 29700.00000 0 -11560054.201 -4848133.052 22251189.344 10 0 60522 30600.00000 0 -9456768.668 -6648507.987 22766739.756 10 0 60522 31500.00000 0 -7458610.653 -8618144.683 22841475.965 10 0 60522 32400.00000 0 -5614783.828 -10710155.246 22473627.457 10 0 60522 33300.00000 0 -3965534.144 -12869855.546 21669978.666 10 0 60522 34200.00000 0 -2540654.029 -15036859.744 20445765.407 10 0 60522 35100.00000 0 -1358431.805 -17147434.673 18824408.736 10 0 60522 36000.00000 0 -425091.205 -19137018.043 16837088.938 10 0 60522 36900.00000 0 265254.227 -20942796.574 14522165.457 10 0 60522 37800.00000 0 730128.553 -22506236.641 11924451.801 10 0 60522 38700.00000 0 997721.226 -23775460.770 9094357.674 10 0 60522 39600.00000 0 1105455.304 -24707368.880 6086913.849 10 0 60522 40500.00000 0 1098156.241 -25269413.016 2960698.312 10 0 60522 41400.00000 0 1025899.100 -25440948.548 -223315.118 10 0 60522 42300.00000 0 941626.582 -25214102.402 -3402962.107 10 0 60522 43200.00000 0 898640.769 -24594119.660 -6516121.819 10 0 60522 44100.00000 0 948077.518 -23599172.286 -9501953.354 10 0 60522 45000.00000 0 1136473.523 -22259637.266 -12302107.951 10 0 60522 45900.00000 0 1503532.236 -20616874.639 -14861890.827 10 0 60522 46800.00000 0 2080186.101 -18721557.719 -17131347.724 10 0 60522 47700.00000 0 2887039.533 -16631627.295 -19066253.143 10 0 60522 48600.00000 0 3933260.191 -14409957.736 -20628979.717 10 0 60522 49500.00000 0 5215966.357 -12121834.960 -21789231.282 10 0 60522 50400.00000 0 6720136.519 -9832353.894 -22524625.425 10 0 60522 51300.00000 0 8419044.506 -7603845.679 -22821114.975 10 0 60522 52200.00000 0 10275201.015 -5493442.858 -22673241.512 10 0 60522 53100.00000 0 12241760.733 -3550884.038 -22084217.664 10 0 60522 54000.00000 0 14264334.786 -1816648.508 -21065838.504 10 0 60522 54900.00000 0 16283131.471 -320496.643 -19638225.777 10 0 60522 55800.00000 0 18235334.829 919525.742 -17829411.829 10 0 60522 56700.00000 0 20057621.274 1897580.809 -15674773.099 10 0 60522 57600.00000 0 21688709.278 2620012.846 -13216325.548 10 0 60522 58500.00000 0 23071836.296 3104807.740 -10501896.864 10 0 60522 59400.00000 0 24157060.734 3380563.718 -7584192.202 10 0 60522 60300.00000 0 24903294.422 3485019.218 -4519771.838 10 0 60522 61200.00000 0 25279982.611 3463201.781 -1367960.524 10 0 60522 62100.00000 0 25268363.251 3365276.983 1810290.829 10 0 60522 63000.00000 0 24862254.799 3244188.386 4953569.971 10 0 60522 63900.00000 0 24068341.166 3153187.558 8001173.197 10 0 60522 64800.00000 0 22905942.906 3143357.356 10894259.113 10 0 60522 65700.00000 0 21406284.603 3261231.577 13576965.594 10 0 60522 66600.00000 0 19611288.736 3546609.938 15997470.021 10 0 60522 67500.00000 0 17571945.319 4030659.215 18108974.048 10 0 60522 68400.00000 0 15346323.627 4734379.767 19870595.459 10 0 60522 69300.00000 0 12997306.737 5667501.825 21248151.194 10 0 60522 70200.00000 0 10590140.701 6827858.646 22214817.392 10 0 60522 71100.00000 0 8189897.854 8201264.383 22751654.200 10 0 60522 72000.00000 0 5858957.387 9761904.150 22847985.070 10 0 60522 72900.00000 0 3654606.012 11473222.882 22501622.559 10 0 60522 73800.00000 0 1626857.104 13289279.166 21718934.976 10 0 60522 74700.00000 0 -183421.623 15156510.813 20514750.750 10 0 60522 75600.00000 0 -1745993.976 17015841.504 18912100.195 10 0 60522 76500.00000 0 -3042292.104 18805043.012 16941797.200 10 0 60522 77400.00000 0 -4065959.899 20461255.927 14641866.511 10 0 60522 78300.00000 0 -4822878.931 21923564.119 12056825.483 10 0 60522 79200.00000 0 -5330674.505 23135514.819 9236832.369 10 0 60522 80100.00000 0 -5617721.565 24047477.308 6236716.541 10 0 60522 81000.00000 0 -5721691.746 24618739.128 3114908.982 10 0 60522 81900.00000 0 -5687703.055 24819249.129 -67705.834 10 0 60522 82800.00000 0 -5566151.257 24630931.185 -3248993.194 10 0 60522 83700.00000 0 -5410316.428 24048510.653 -6366801.379 10 0 60522 84600.00000 0 -5273848.381 23079816.578 -9360198.601 10 0 60522 85500.00000 0 -5208240.302 21745545.394 -12170687.026 10 0 60523 0.00000 0 -5260400.644 20078495.619 -14743367.460 10 0 60523 900.00000 0 -5470429.085 18122304.978 -17028031.078 10 0 60523 1800.00000 0 -5869693.192 15929746.319 -18980151.593 10 0 60523 2700.00000 0 -6479289.179 13560652.478 -20561761.866 10 0 60523 3600.00000 0 -7308953.031 11079561.095 -21742193.776 10 0 60523 4500.00000 0 -8356468.394 8553179.050 -22498668.411 10 0 60523 5400.00000 0 -9607595.944 6047774.254 -22816725.595 10 0 60523 6300.00000 0 -11036526.335 3626604.680 -22690485.672 10 0 60523 7200.00000 0 -12606836.368 1347492.149 -22122740.121 10 0 60523 8100.00000 0 -14272906.740 -739358.621 -21124871.157 10 0 60523 9000.00000 0 -15981740.445 -2593206.427 -19716603.903 10 0 60523 9900.00000 0 -17675104.346 -4184210.818 -17925597.869 10 0 60523 10800.00000 0 -19291903.385 -5494403.316 -15786887.444 10 0 60523 11700.00000 0 -20770687.712 -6518155.538 -13342183.695 10 0 60523 12600.00000 0 -22052188.008 -7262128.307 -10639052.190 10 0 60523 13500.00000 0 -23081773.700 -7744707.374 -7729983.485 10 0 60523 14400.00000 0 -23811732.438 -7994952.512 -4671374.641 10 0 60523 15300.00000 0 -24203277.028 -8051106.567 -1522441.439 10 0 60523 16200.00000 0 -24228197.601 -7958728.848 1655918.088 10 0 60523 17100.00000 0 -23870091.612 -7768532.262 4802287.653 10 0 60523 18000.00000 0 -23125121.688 -7534015.330 7855902.812 10 0 60523 18900.00000 0 -22002270.727 -7308988.225 10757805.963 10 0 60523 19800.00000 0 -20523084.034 -7145095.906 13451965.525 10 0 60523 20700.00000 0 -18720909.096 -7089441.307 15886339.338 10 0 60523 21600.00000 0 -16639663.817 -7182407.225 18013863.479 10 0 60523 22500.00000 0 -14332182.918 -7455767.444 19793348.999 10 0 60523 23400.00000 0 -11858209.280 -7931165.876 21190270.571 10 0 60523 24300.00000 0 -9282111.217 -8619027.675 22177432.826 10 0 60523 25200.00000 0 -6670417.854 -9517948.886 22735502.003 10 0 60523 26100.00000 0 -4089272.388 -10614591.906 22853392.571 10 0 60523 27000.00000 0 -1601906.654 -11884093.519 22528500.692 10 0 60523 27900.00000 0 733759.969 -13290971.329 21766778.733 10 0 60523 28800.00000 0 2867298.644 -14790493.831 20582647.619 10 0 60523 29700.00000 0 4757636.093 -16330459.864 18998746.494 10 0 60523 30600.00000 0 6374528.616 -17853315.709 17045522.122 10 0 60523 31500.00000 0 7699582.813 -19298523.189 14760663.517 10 0 60523 32400.00000 0 8726779.151 -20605080.700 12188390.520 10 0 60523 33300.00000 0 9462475.104 -21714091.561 9378608.260 10 0 60523 34200.00000 0 9924886.491 -22571270.946 6385942.712 10 0 60523 35100.00000 0 10143067.974 -23129284.216 3268675.589 10 0 60523 36000.00000 0 10155435.433 -23349815.806 87599.516 10 0 60523 36900.00000 0 10007893.047 -23205278.638 -3095183.105 10 0 60523 37800.00000 0 9751645.527 -22680089.096 -6217492.482 10 0 60523 38700.00000 0 9440790.027 -21771451.150 -9218308.832 10 0 60523 39600.00000 0 9129792.264 -20489614.474 -12038988.161 10 0 60523 40500.00000 0 8870956.569 -18857594.307 -14624430.199 10 0 60523 41400.00000 0 8711999.932 -16910364.347 -16924173.422 10 0 60523 42300.00000 0 8693835.398 -14693556.959 -18893393.880 10 0 60523 43200.00000 0 8848660.723 -12261726.275 -20493787.055 10 0 60523 44100.00000 0 9198434.553 -9676248.532 -21694314.945 10 0 60523 45000.00000 0 9753805.133 -7002949.270 -22471803.825 10 0 60523 45900.00000 0 10513536.621 -4309558.176 -22811381.794 10 0 60523 46800.00000 0 11464456.345 -1663098.996 -22706748.800 10 0 60523 47700.00000 0 12581923.859 872675.985 -22160275.587 10 0 60523 48600.00000 0 13830800.385 3239700.276 -21182931.530 10 0 60523 49500.00000 0 15166876.129 5387756.829 -19794044.755 10 0 60523 50400.00000 0 16538693.876 7276302.810 -18020901.193 10 0 60523 51300.00000 0 17889691.046 8875882.147 -15898192.075 10 0 60523 52200.00000 0 19160569.484 10169070.194 -13467322.096 10 0 60523 53100.00000 0 20291793.342 11150914.593 -10775592.846 10 0 60523 54000.00000 0 21226110.588 11828857.499 -7875278.078 10 0 60523 54900.00000 0 21910993.282 12222145.771 -4822609.090 10 0 60523 55800.00000 0 22300895.540 12360756.688 -1676689.880 10 0 60523 56700.00000 0 22359236.075 12283886.466 1501637.400 10 0 60523 57600.00000 0 22060023.828 12038066.451 4650955.520 10 0 60523 58500.00000 0 21389060.018 11674986.757 7710442.401 10 0 60523 59400.00000 0 20344667.421 11249118.661 10621027.251 10 0 60523 60300.00000 0 18937916.926 10815234.968 13326511.897 10 0 60523 61200.00000 0 17192341.863 10425931.331 15774637.302 10 0 60523 62100.00000 0 15143151.231 10129251.351 17918076.401 10 0 60523 63000.00000 0 12835973.146 9966513.820 19715335.690 10 0 60523 63900.00000 0 10325178.728 9970432.350 21131549.474 10 0 60523 64800.00000 0 7671853.575 10163605.786 22139152.470 10 0 60523 65700.00000 0 4941498.205 10557442.911 22718418.270 10 0 60523 66600.00000 0 2201550.118 11151567.478 22857853.240 10 0 60523 67500.00000 0 -481172.409 11933730.217 22554437.587 10 0 60523 68400.00000 0 -3043000.943 12880233.853 21813707.729 10 0 60523 69300.00000 0 -5425818.485 13956856.070 20649676.571 10 0 60523 70200.00000 0 -7579233.152 15120234.693 19084591.093 10 0 60523 71100.00000 0 -9462433.701 16319659.756 17148529.474 10 0 60523 72000.00000 0 -11045649.008 17499199.545 14878843.119 10 0 60523 72900.00000 0 -12311149.540 18600072.940 12319452.150 10 0 60523 73800.00000 0 -13253747.558 19563168.945 9520006.106 10 0 60523 74700.00000 0 -13880773.657 20331607.027 6534924.930 10 0 60523 75600.00000 0 -14211529.452 20853229.095 3422338.300 10 0 60523 76500.00000 0 -14276238.765 21082915.883 242944.175 10 0 60523 77400.00000 0 -14114541.509 20984627.256 -2941190.202 10 0 60523 78300.00000 0 -13773594.628 20533077.301 -6067859.794 10 0 60523 79200.00000 0 -13305861.921 19714970.541 -9075959.584 10 0 60523 80100.00000 0 -12766688.409 18529744.487 -11906702.058 10 0 60523 81000.00000 0 -12211764.568 16989785.260 -14504788.109 10 0 60523 81900.00000 0 -11694590.554 15120105.998 -16819506.202 10 0 60523 82800.00000 0 -11264050.404 12957501.253 -18805736.428 10 0 60523 83700.00000 0 -10962201.107 10549213.321 -20424838.535 10 0 60523 84600.00000 0 -10822371.643 7951167.506 -21645405.972 10 0 60523 85500.00000 0 -10867653.130 5225851.646 -22443871.213 10 0 60524 0.00000 0 -11109843.795 2439930.329 -22804951.288 10 0 60524 900.00000 0 -11548892.655 -338306.767 -22721926.141 10 0 60524 1800.00000 0 -12172863.560 -3041551.428 -22196745.695 10 0 60524 2700.00000 0 -12958419.670 -5606034.491 -21239966.061 10 0 60524 3600.00000 0 -13871805.626 -7973924.900 -19870517.592 10 0 60524 4500.00000 0 -14870284.134 -10095473.228 -18115311.495 10 0 60524 5400.00000 0 -15903964.777 -11930812.365 -16008694.379 10 0 60524 6300.00000 0 -16917946.806 -13451343.233 -13591762.849 10 0 60524 7200.00000 0 -17854685.069 -14640650.956 -10911552.596 10 0 60524 8100.00000 0 -18656479.458 -15494916.754 -8020118.502 10 0 60524 9000.00000 0 -19267983.693 -16022811.734 -4973523.952 10 0 60524 9900.00000 0 -19638628.938 -16244880.066 -1830758.934 10 0 60524 10800.00000 0 -19724861.720 -16192439.919 1347392.557 10 0 60524 11700.00000 0 -19492103.673 -15906050.056 4499514.691 10 0 60524 12600.00000 0 -18916352.254 -15433607.446 7564730.141 10 0 60524 13500.00000 0 -17985356.495 -14828155.998 10483857.356 10 0 60524 14400.00000 0 -16699319.258 -14145497.948 13200534.010 10 0 60524 15300.00000 0 -15071096.725 -13441707.126 15662286.582 10 0 60524 16200.00000 0 -13125886.199 -12770647.112 17821527.146 10 0 60524 17100.00000 0 -10900413.902 -12181596.866 19636459.747 10 0 60524 18000.00000 0 -8441654.627 -11717082.070 21071880.185 10 0 60524 18900.00000 0 -5805133.919 -11411002.055 22099854.830 10 0 60524 19800.00000 0 -3052880.389 -11287130.376 22700265.879 10 0 60524 20700.00000 0 -251110.102 -11358052.096 22861212.505 10 0 60524 21600.00000 0 2532263.875 -11624583.289 22579259.558 10 0 60524 22500.00000 0 5230196.092 -12075698.748 21859527.782 10 0 60524 23400.00000 0 7779043.126 -12688973.175 20715622.050 10 0 60524 24300.00000 0 10120963.877 -13431519.870 19169396.867 10 0 60524 25200.00000 0 12206086.538 -14261390.170 17250561.215 10 0 60524 26100.00000 0 13994351.765 -15129377.162 14996127.968 10 0 60524 27000.00000 0 15456954.283 -15981149.655 12449716.247 10 0 60524 27900.00000 0 16577321.347 -16759627.591 9660718.352 10 0 60524 28800.00000 0 17351585.496 -17407498.883 6683346.156 10 0 60524 29700.00000 0 17788530.273 -17869770.616 3575574.919 10 0 60524 30600.00000 0 17909010.105 -18096245.116 398005.226 10 0 60524 31500.00000 0 17744868.187 -18043813.749 -2787333.767 10 0 60524 32400.00000 0 17337398.264 -17678468.546 -5918214.850 10 0 60524 33300.00000 0 16735416.255 -16976943.502 -8933450.893 10 0 60524 34200.00000 0 15993024.954 -15927913.289 -11774113.948 10 0 60524 35100.00000 0 15167168.649 -14532696.279 -14384709.045 10 0 60524 36000.00000 0 14315083.688 -12805430.453 -16714277.443 10 0 60524 36900.00000 0 13491755.449 -10772713.800 -18717405.850 10 0 60524 37800.00000 0 12747491.606 -8472724.164 -20355120.567 10 0 60524 38700.00000 0 12125715.985 -5953856.014 -21595648.422 10 0 60524 39600.00000 0 11661077.293 -3272932.347 -22415029.628 10 0 60524 40500.00000 0 11377952.672 -493067.877 -22797571.275 10 0 60524 41400.00000 0 11289408.563 2318725.946 -22736133.831 10 0 60524 42300.00000 0 11396661.259 5094093.062 -22232246.719 10 0 60524 43200.00000 0 11689057.836 7765935.218 -21296052.590 10 0 60524 44100.00000 0 12144575.952 10270956.452 -19946083.419 10 0 60524 45000.00000 0 12730818.994 12552044.574 -18208874.718 10 0 60524 45900.00000 0 13406462.388 14560392.196 -16118427.158 10 0 60524 46800.00000 0 14123088.300 16257271.350 -13715527.591 10 0 60524 47700.00000 0 14827330.090 17615390.579 -11046943.822 10 0 60524 48600.00000 0 15463235.511 18619781.126 -8164509.570 10 0 60524 49500.00000 0 15974749.090 19268178.506 -5124117.739 10 0 60524 50400.00000 0 16308209.698 19570886.601 -1984641.520 10 0 60524 51300.00000 0 16414759.200 19550132.684 1193196.194 10 0 60524 52200.00000 0 16252562.148 19238942.457 4347983.970 10 0 60524 53100.00000 0 15788744.588 18679583.655 7418792.213 10 0 60524 54000.00000 0 15000971.778 17921643.996 10346331.490 10 0 60524 54900.00000 0 13878599.504 17019823.944 13074078.041 10 0 60524 55800.00000 0 12423351.084 16031535.943 15549346.378 10 0 60524 56700.00000 0 10649491.400 15014409.485 17724289.997 10 0 60524 57600.00000 0 8583489.571 14023804.918 19556812.530 10 0 60524 58500.00000 0 6263182.548 13110438.498 21011373.045 10 0 60524 59400.00000 0 3736471.956 12318216.713 22059671.042 10 0 60524 60300.00000 0 1059605.432 11682369.504 22681198.475 10 0 60524 61200.00000 0 -1704889.361 11227960.092 22863648.117 10 0 60524 62100.00000 0 -4490535.509 10968834.066 22603169.832 10 0 60524 63000.00000 0 -7229408.714 10907052.693 21904468.606 10 0 60524 63900.00000 0 -9854708.853 11032835.790 20780740.714 10 0 60524 64800.00000 0 -12303296.270 11325018.614 19253447.120 10 0 60524 65700.00000 0 -14518088.377 11752005.862 17351926.069 10 0 60524 66600.00000 0 -16450216.901 12273184.942 15112849.928 10 0 60524 67500.00000 0 -18060855.228 12840740.933 12579534.494 10 0 60524 68400.00000 0 -19322638.241 13401798.047 9801112.231 10 0 60524 69300.00000 0 -20220613.550 13900797.730 6831584.178 10 0 60524 70200.00000 0 -20752682.501 14282012.519 3728768.314 10 0 60524 71100.00000 0 -20929510.864 14492088.012 553164.966 10 0 60524 72000.00000 0 -20773911.870 14482503.229 -2633237.677 10 0 60524 72900.00000 0 -20319727.224 14211842.446 -5768193.062 10 0 60524 73800.00000 0 -19610253.679 13647779.265 -8790434.694 10 0 60524 74700.00000 0 -18696282.834 12768685.851 -11640896.823 10 0 60524 75600.00000 0 -17633838.830 11564796.502 -14263891.074 10 0 60524 76500.00000 0 -16481711.872 10038874.127 -16608213.720 10 0 60524 77400.00000 0 -15298894.344 8206350.028 -18628160.000 10 0 60524 78300.00000 0 -14142030.150 6094930.329 -20284424.328 10 0 60524 79200.00000 0 -13062986.963 3743685.634 -21544868.086 10 0 60524 80100.00000 0 -12106655.063 1201662.760 -22385139.980 10 0 60524 81000.00000 0 -11309066.042 -1473922.222 -22789137.489 10 0 60524 81900.00000 0 -10695910.181 -4219832.863 -22749301.602 10 0 60524 82800.00000 0 -10281513.660 -6969212.219 -22266740.717 10 0 60524 83700.00000 0 -10068316.603 -9654132.865 -21351183.181 10 0 60524 84600.00000 0 -10046871.425 -12208190.528 -20020761.399 10 0 60524 85500.00000 0 -10196358.729 -14569033.691 -18301633.691 10 0 60525 0.00000 0 -10485596.255 -16680724.803 -16227453.255 10 0 60525 900.00000 0 -10874496.066 -18495837.660 -13838694.892 10 0 60525 1800.00000 0 -11315906.161 -19977203.196 -11181856.662 10 0 60525 2700.00000 0 -11757758.075 -21099237.475 -8308549.050 10 0 60525 3600.00000 0 -12145428.904 -21848796.636 -5274492.399 10 0 60525 4500.00000 0 -12424218.355 -22225527.236 -2138441.054 10 0 60525 5400.00000 0 -12541836.995 -22241699.876 1038945.208 10 0 60525 6300.00000 0 -12450801.937 -21921535.351 4196261.362 10 0 60525 7200.00000 0 -12110640.349 -21300053.095 7272527.555 10 0 60525 8100.00000 0 -11489809.377 -20421491.050 10208348.500 10 0 60525 9000.00000 0 -10567252.853 -19337363.215 12947041.033 10 0 60525 9900.00000 0 -9333530.046 -18104235.606 15435709.713 10 0 60525 10800.00000 0 -7791469.144 -16781312.527 17626251.415 10 0 60525 11700.00000 0 -5956317.343 -15427932.542 19476271.189 10 0 60525 12600.00000 0 -3855379.789 -14101077.066 20949893.035 10 0 60525 13500.00000 0 -1527160.121 -12852994.012 22018451.039 10 0 60525 14400.00000 0 979964.420 -11729034.295 22661048.110 10 0 60525 15300.00000 0 3609481.459 -10765790.662 22864971.556 10 0 60525 16200.00000 0 6298826.702 -9989616.217 22625956.919 10 0 60525 17100.00000 0 8981728.664 -9415584.886 21948293.824 10 0 60525 18000.00000 0 11590720.369 -9046938.285 20844770.069 10 0 60525 18900.00000 0 14059715.933 -8875043.665 19336452.932 10 0 60525 19800.00000 0 16326546.345 -8879866.525 17452309.490 10 0 60525 20700.00000 0 18335349.380 -9030940.084 15228670.858 10 0 60525 21600.00000 0 20038713.689 -9288792.628 12708548.415 10 0 60525 22500.00000 0 21399486.417 -9606773.999 9940813.310 10 0 60525 23400.00000 0 22392167.017 -9933204.930 6979253.867 10 0 60525 24300.00000 0 23003826.923 -10213758.279 3881528.490 10 0 60525 25200.00000 0 23234514.523 -10393970.506 708034.593 10 0 60525 26100.00000 0 23097126.797 -10421775.218 -2479283.546 10 0 60525 27000.00000 0 22616752.037 -10249948.964 -5618163.169 10 0 60525 27900.00000 0 21829511.103 -9838362.666 -8647261.637 10 0 60525 28800.00000 0 20780946.669 -9155940.208 -11507378.578 10 0 60525 29700.00000 0 19524029.806 -8182238.230 -14142635.260 10 0 60525 30600.00000 0 18116869.968 -6908577.737 -16501585.815 10 0 60525 31500.00000 0 16620227.366 -5338677.724 -18538236.605 10 0 60525 32400.00000 0 15094935.001 -3488762.901 -20212952.444 10 0 60525 33300.00000 0 13599341.126 -1387140.480 -21493231.217 10 0 60525 34200.00000 0 12186881.449 926735.897 -22354331.695 10 0 60525 35100.00000 0 10903884.043 3403675.074 -22779742.917 10 0 60525 36000.00000 0 9787699.182 5986570.026 -22761487.140 10 0 60525 36900.00000 0 8865231.715 8612554.881 -22300252.044 10 0 60525 37800.00000 0 8151935.778 11215406.260 -21405351.544 10 0 60525 38700.00000 0 7651311.525 13728088.155 -20094517.922 10 0 60525 39600.00000 0 7354922.069 16085334.206 -18393531.355 10 0 60525 40500.00000 0 7242926.762 18226160.344 -16335695.813 10 0 60525 41400.00000 0 7285105.349 20096204.417 -13961173.090 10 0 60525 42300.00000 0 7442327.251 21649797.093 -11316189.103 10 0 60525 43200.00000 0 7668402.021 22851680.102 -8452128.718 10 0 60525 44100.00000 0 7912231.616 23678302.778 -5424537.068 10 0 60525 45000.00000 0 8120173.141 24118645.534 -2292046.769 10 0 60525 45900.00000 0 8238512.543 24174538.509 884748.547 10 0 60525 46800.00000 0 8215945.604 23860464.366 4044453.359 10 0 60525 47700.00000 0 8005962.782 23202855.211 7126040.628 10 0 60525 48600.00000 0 7569038.687 22238914.152 10070012.180 10 0 60525 49500.00000 0 6874535.255 21015011.105 12819528.253 10 0 60525 50400.00000 0 5902239.483 19584719.537 15321486.035 10 0 60525 51300.00000 0 4643471.553 18006575.185 17527528.125 10 0 60525 52200.00000 0 3101716.518 16341648.791 19394963.067 10 0 60525 53100.00000 0 1292752.049 14651032.371 20887581.585 10 0 60525 54000.00000 0 -755735.046 12993341.960 21976353.831 10 0 60525 54900.00000 0 -3005030.092 11422339.183 22639994.817 10 0 60525 55800.00000 0 -5406736.050 9984769.420 22865387.151 10 0 60525 56700.00000 0 -7904530.670 8718505.811 22647852.394 10 0 60525 57600.00000 0 -10436265.679 7651076.236 21991264.686 10 0 60525 58500.00000 0 -12936323.887 6798635.161 20908002.724 10 0 60525 59400.00000 0 -15338138.838 6165424.291 19418738.959 10 0 60525 60300.00000 0 -17576774.050 5743746.011 17552067.649 10 0 60525 61200.00000 0 -19591455.364 5514452.421 15343976.538 10 0 60525 62100.00000 0 -21327950.826 5447931.097 12837170.055 10 0 60525 63000.00000 0 -22740697.848 5505547.505 10080255.197 10 0 60525 63900.00000 0 -23794587.029 5641484.157 7126804.506 10 0 60525 64800.00000 0 -24466325.848 5804899.046 4034313.643 10 0 60525 65700.00000 0 -24745322.762 5942311.441 863073.898 10 0 60525 66600.00000 0 -24634052.454 6000112.566 -2325017.533 10 0 60525 67500.00000 0 -24147885.268 5927092.571 -5467684.778 10 0 60525 68400.00000 0 -23314387.097 5676873.891 -8503512.005 10 0 60525 69300.00000 0 -22172119.116 5210144.785 -11373167.022 10 0 60525 70200.00000 0 -20768988.740 4496595.297 -14020583.321 10 0 60525 71100.00000 0 -19160222.770 3516470.873 -16394075.184 10 0 60525 72000.00000 0 -17406050.175 2261675.622 -18447362.032 10 0 60525 72900.00000 0 -15569194.360 736377.004 -20140480.563 10 0 60525 73800.00000 0 -13712282.605 -1042914.413 -21440566.159 10 0 60525 74700.00000 0 -11895283.426 -3047793.592 -22322488.120 10 0 60525 75600.00000 0 -10173080.647 -5238918.719 -22769326.964 10 0 60525 76500.00000 0 -8593286.298 -7567436.840 -22772685.609 10 0 60525 77400.00000 0 -7194383.494 -9976816.540 -22332829.952 10 0 60525 78300.00000 0 -6004275.594 -12405009.906 -21458657.985 10 0 60525 79200.00000 0 -5039300.121 -14786852.551 -20167500.042 10 0 60525 80100.00000 0 -4303745.836 -17056601.040 -18484756.056 10 0 60525 81000.00000 0 -3789889.872 -19150501.968 -16443378.702 10 0 60525 81900.00000 0 -3478550.007 -21009286.259 -14083214.013 10 0 60525 82800.00000 0 -3340125.657 -22580485.974 -11450213.541 10 0 60525 83700.00000 0 -3336081.113 -23820478.809 -8595534.196 10 0 60525 84600.00000 0 -3420806.496 -24696177.241 -5574543.657 10 0 60525 85500.00000 0 -3543776.749 -25186294.197 -2445750.707 99